Tracking 29510 objects as of 16-Sep-2024
HD Live streaming from Space Station
objects crossing your sky now

STARLINK-30297

Track STARLINK-30297 now!
10-day predictions
STARLINK-30297 is classified as:


NORAD ID: 57682
Int'l Code: 2023-124V
Perigee: 470.1 km
Apogee: 470.6 km
Inclination: 53.2 °
Period: 93.9 minutes
Semi major axis: 6841 km
RCS: Unknown
Launch date: August 22, 2023
Source: United States (US)
Launch site: AIR FORCE WESTERN TEST RANGE (AFWTR)
Your satellite tracking list
Your tracking list is empty




NASA's NSSDC Master Catalog

Two Line Element Set (TLE):
1 57682U 23124V   24260.24920878  .00003445  00000-0  11364-3 0  9998
2 57682  53.1601 194.8789 0000392 137.4000 222.7033 15.34226274 60945
Source of the keplerian elements: AFSPC